^^
Station Historical Data
Daily Summary for September 28, 2021 Units:  English    Metric   Both
Daily Weekly Monthly Yearly
  High: Low: Average:
Temperature: 61.7 °F 53.2 °F 58.3 °F
Dew Point: 54.9 °F 46.6 °F 51.6 °F
Humidity: 90% 68% 79%
Wind Speed: 4mph 0mph 2.1mph
Wind Gust: 10mph - -
Wind- - ESE
Pressure: 30.03 in 29.87 in -
Precipitation: 0.00 in    
 
 
Tabular Data for September 28, 2021
Time Temperature Dew Point Pressure Wind Wind Speed Wind Gust Humidity Rainfall Rate (Hourly) solar
00:00 60.8 °F 54.6 °F 29.87 in ENE 2 mph 3 mph 80% 0.00 in 0 W/m2
00:05 60.8 °F 54.6 °F 29.87 in NE 2 mph 3 mph 80% 0.00 in 0 W/m2
00:10 60.8 °F 54.9 °F 29.87 in ENE 2 mph 2 mph 81% 0.00 in 0 W/m2
00:15 60.8 °F 54.6 °F 29.87 in North 2 mph 4 mph 80% 0.00 in 0 W/m2
00:20 60.7 °F 54.8 °F 29.87 in ENE 3 mph 3 mph 81% 0.00 in 0 W/m2
00:25 60.7 °F 54.5 °F 29.87 in NNE 2 mph 3 mph 80% 0.00 in 0 W/m2
00:30 60.7 °F 54.5 °F 29.87 in NE 2 mph 2 mph 80% 0.00 in 0 W/m2
00:35 60.6 °F 54.7 °F 29.87 in NE 2 mph 3 mph 81% 0.00 in 0 W/m2
00:40 60.6 °F 54.4 °F 29.87 in NNW 2 mph 3 mph 80% 0.00 in 0 W/m2
00:45 60.5 °F 54 °F 29.87 in NNE 2 mph 3 mph 79% 0.00 in 0 W/m2
00:50 60.5 °F 54 °F 29.87 in North 3 mph 3 mph 79% 0.00 in 0 W/m2
00:55 60.5 °F 54.3 °F 29.87 in NE 3 mph 3 mph 80% 0.00 in 0 W/m2
01:00 60.5 °F 54.3 °F 29.87 in East 2 mph 2 mph 80% 0.00 in 0 W/m2
01:05 60.5 °F 54.6 °F 29.87 in North 2 mph 2 mph 81% 0.00 in 0 W/m2
01:10 60.5 °F 54.6 °F 29.87 in NE 2 mph 2 mph 81% 0.00 in 0 W/m2
01:15 60.2 °F 54.3 °F 29.87 in SW 3 mph 3 mph 81% 0.00 in 0 W/m2
01:20 60 °F 53.8 °F 29.87 in North 4 mph 4 mph 80% 0.00 in 0 W/m2
01:25 59.8 °F 54 °F 29.87 in North 4 mph 4 mph 81% 0.00 in 0 W/m2
01:30 59.7 °F 53.9 °F 29.87 in NE 3 mph 3 mph 81% 0.00 in 0 W/m2
01:35 59.5 °F 53.7 °F 29.87 in NW 3 mph 3 mph 81% 0.00 in 0 W/m2
01:40 59.3 °F 53.8 °F 29.88 in North 3 mph 3 mph 82% 0.00 in 0 W/m2
01:45 59.1 °F 53.6 °F 29.88 in NNW 4 mph 4 mph 82% 0.00 in 0 W/m2
01:50 59 °F 53.8 °F 29.88 in NNW 4 mph 4 mph 83% 0.00 in 0 W/m2
01:55 58.9 °F 53.7 °F 29.88 in SE 3 mph 4 mph 83% 0.00 in 0 W/m2
02:00 58.6 °F 53.5 °F 29.87 in SE 3 mph 3 mph 83% 0.00 in 0 W/m2
02:05 58.4 °F 53.3 °F 29.88 in NW 3 mph 6 mph 83% 0.00 in 0 W/m2
02:10 58.3 °F 53.2 °F 29.88 in NNE 4 mph 5 mph 83% 0.00 in 0 W/m2
02:15 58.1 °F 53.3 °F 29.88 in NNE 4 mph 5 mph 84% 0.00 in 0 W/m2
02:20 58 °F 53.2 °F 29.88 in NW 4 mph 4 mph 84% 0.00 in 0 W/m2
02:25 57.9 °F 53.1 °F 29.88 in North 3 mph 10 mph 84% 0.00 in 0 W/m2
02:30 57.7 °F 52.9 °F 29.88 in NE 4 mph 4 mph 84% 0.00 in 0 W/m2
02:35 57.6 °F 53.1 °F 29.88 in NNW 4 mph 4 mph 85% 0.00 in 0 W/m2
02:40 57.6 °F 53.1 °F 29.88 in ESE 3 mph 3 mph 85% 0.00 in 0 W/m2
02:45 57.5 °F 53 °F 29.88 in West 3 mph 4 mph 85% 0.00 in 0 W/m2
02:50 57.4 °F 52.9 °F 29.88 in SE 3 mph 3 mph 85% 0.00 in 0 W/m2
02:55 57.3 °F 52.8 °F 29.88 in West 3 mph 3 mph 85% 0.00 in 0 W/m2
03:00 57.2 °F 52.7 °F 29.89 in NE 3 mph 3 mph 85% 0.00 in 0 W/m2
03:05 57.1 °F 52.6 °F 29.89 in NNW 3 mph 6 mph 85% 0.00 in 0 W/m2
03:10 57.1 °F 52.6 °F 29.89 in NE 3 mph 3 mph 85% 0.00 in 0 W/m2
03:15 57 °F 52.9 °F 29.89 in NNE 3 mph 6 mph 86% 0.00 in 0 W/m2
03:20 57 °F 52.5 °F 29.89 in NNE 3 mph 5 mph 85% 0.00 in 0 W/m2
03:25 56.9 °F 52.4 °F 29.89 in NNW 3 mph 5 mph 85% 0.00 in 0 W/m2
03:30 56.8 °F 52.3 °F 29.89 in NNW 4 mph 4 mph 85% 0.00 in 0 W/m2
03:35 56.7 °F 52.2 °F 29.89 in East 4 mph 4 mph 85% 0.00 in 0 W/m2
03:40 56.6 °F 52.1 °F 29.89 in North 3 mph 3 mph 85% 0.00 in 0 W/m2
03:45 56.5 °F 52 °F 29.89 in SW 3 mph 3 mph 85% 0.00 in 0 W/m2
03:50 56.4 °F 51.9 °F 29.89 in NNW 3 mph 3 mph 85% 0.00 in 0 W/m2
03:55 56.4 °F 51.9 °F 29.89 in NNW 3 mph 5 mph 85% 0.00 in 0 W/m2
04:00 56.3 °F 52.2 °F 29.89 in NW 3 mph 3 mph 86% 0.00 in 0 W/m2
04:05 56.3 °F 52.2 °F 29.89 in North 3 mph 3 mph 86% 0.00 in 0 W/m2
04:10 56.2 °F 52.1 °F 29.89 in NNW 3 mph 7 mph 86% 0.00 in 0 W/m2
04:15 56.2 °F 52.1 °F 29.89 in ESE 2 mph 7 mph 86% 0.00 in 0 W/m2
04:20 56.2 °F 52.1 °F 29.89 in East 2 mph 2 mph 86% 0.00 in 0 W/m2
04:25 56.2 °F 52.1 °F 29.90 in North 2 mph 3 mph 86% 0.00 in 0 W/m2
04:30 56.2 °F 52.1 °F 29.90 in NW 3 mph 3 mph 86% 0.00 in 0 W/m2
04:35 56.1 °F 52.3 °F 29.90 in East 2 mph 3 mph 87% 0.00 in 0 W/m2
04:40 56.1 °F 52.3 °F 29.90 in East 2 mph 2 mph 87% 0.00 in 0 W/m2
04:45 56 °F 52.2 °F 29.91 in NE 3 mph 4 mph 87% 0.00 in 0 W/m2
04:50 56 °F 52.2 °F 29.91 in East 3 mph 3 mph 87% 0.00 in 0 W/m2
04:55 56 °F 52.2 °F 29.91 in NNE 2 mph 3 mph 87% 0.00 in 0 W/m2
05:00 56 °F 52.2 °F 29.91 in SE 2 mph 2 mph 87% 0.00 in 0 W/m2
05:05 56 °F 52.2 °F 29.91 in ESE 2 mph 4 mph 87% 0.00 in 0 W/m2
05:10 56 °F 52.2 °F 29.91 in NW 3 mph 3 mph 87% 0.00 in 0 W/m2
05:15 55.9 °F 52.1 °F 29.91 in North 3 mph 4 mph 87% 0.00 in 0 W/m2
05:20 55.9 °F 52.1 °F 29.91 in ENE 2 mph 2 mph 87% 0.00 in 0 W/m2
05:25 55.9 °F 52.1 °F 29.91 in East 2 mph 3 mph 87% 0.00 in 0 W/m2
05:30 56 °F 52.2 °F 29.92 in ENE 2 mph 2 mph 87% 0.00 in 0 W/m2
05:35 55.9 °F 52.1 °F 29.92 in NW 2 mph 2 mph 87% 0.00 in 0 W/m2
05:40 56 °F 52.2 °F 29.92 in NNW 2 mph 3 mph 87% 0.00 in 0 W/m2
05:45 56 °F 52.2 °F 29.93 in North 2 mph 3 mph 87% 0.00 in 0 W/m2
05:50 56 °F 52.2 °F 29.93 in East 2 mph 2 mph 87% 0.00 in 0 W/m2
05:55 56 °F 52.2 °F 29.93 in NE 2 mph 2 mph 87% 0.00 in 0 W/m2
06:00 55.9 °F 52.1 °F 29.93 in North 2 mph 2 mph 87% 0.00 in 0 W/m2
06:05 55.9 °F 52.1 °F 29.94 in ENE 2 mph 2 mph 87% 0.00 in 0 W/m2
06:10 56 °F 52.2 °F 29.93 in NNW 2 mph 2 mph 87% 0.00 in 0 W/m2
06:15 55.9 °F 52.1 °F 29.94 in East 2 mph 2 mph 87% 0.00 in 0 W/m2
06:20 55.9 °F 52.1 °F 29.94 in NW 2 mph 2 mph 87% 0.00 in 0 W/m2
06:25 55.9 °F 52.1 °F 29.94 in NE 2 mph 2 mph 87% 0.00 in 0 W/m2
06:30 55.9 °F 52.1 °F 29.94 in NNE 2 mph 2 mph 87% 0.00 in 0 W/m2
06:35 55.9 °F 52.1 °F 29.95 in NNW 2 mph 4 mph 87% 0.00 in 0 W/m2
06:40 55.9 °F 52.1 °F 29.95 in ENE 2 mph 2 mph 87% 0.00 in 0 W/m2
06:45 56 °F 52.2 °F 29.95 in ENE 2 mph 2 mph 87% 0.00 in 0 W/m2
06:50 56 °F 52.2 °F 29.95 in NE 2 mph 2 mph 87% 0.00 in 0 W/m2
06:55 56.1 °F 52.6 °F 29.95 in NNW 1 mph 2 mph 88% 0.00 in 0 W/m2
07:00 56.2 °F 52.7 °F 29.95 in NNW 1 mph 2 mph 88% 0.00 in 0 W/m2
07:05 56.3 °F 52.8 °F 29.95 in ENE 2 mph 2 mph 88% 0.00 in 0 W/m2
07:10 56.3 °F 52.8 °F 29.95 in NW 2 mph 2 mph 88% 0.00 in 0 W/m2
07:15 56.4 °F 52.9 °F 29.95 in NNE 2 mph 2 mph 88% 0.00 in 0 W/m2
07:20 56.5 °F 53 °F 29.96 in SE 2 mph 2 mph 88% 0.00 in 0 W/m2
07:25 56.6 °F 53.1 °F 29.96 in North 2 mph 2 mph 88% 0.00 in 0 W/m2
07:30 56.7 °F 53.2 °F 29.96 in ENE 2 mph 2 mph 88% 0.00 in 0 W/m2
07:35 56.7 °F 53.2 °F 29.97 in West 2 mph 2 mph 88% 0.00 in 0 W/m2
07:40 56.7 °F 53.2 °F 29.96 in NE 2 mph 2 mph 88% 0.00 in 5 W/m2
07:45 56.6 °F 53.1 °F 29.97 in North 2 mph 3 mph 88% 0.00 in 5 W/m2
07:50 56.6 °F 53.1 °F 29.97 in NW 2 mph 2 mph 88% 0.00 in 7 W/m2
07:55 56.6 °F 53.1 °F 29.97 in NNW 2 mph 2 mph 88% 0.00 in 9 W/m2
08:00 56.6 °F 53.1 °F 29.97 in WNW 2 mph 3 mph 88% 0.00 in 9 W/m2
08:05 56.7 °F 53.2 °F 29.97 in NNW 2 mph 3 mph 88% 0.00 in 12 W/m2
08:10 56.7 °F 53.2 °F 29.97 in NW 1 mph 1 mph 88% 0.00 in 23 W/m2
08:15 56.8 °F 53.3 °F 29.97 in NNE 1 mph 1 mph 88% 0.00 in 26 W/m2
08:20 56.9 °F 53.4 °F 29.97 in NNE 2 mph 4 mph 88% 0.00 in 53 W/m2
08:25 57.1 °F 53.9 °F 29.98 in NNW 3 mph 4 mph 89% 0.00 in 23 W/m2
08:30 57.2 °F 54 °F 29.98 in NNE 3 mph 3 mph 89% 0.00 in 16 W/m2
08:35 57.2 °F 54 °F 29.99 in NNE 3 mph 3 mph 89% 0.00 in 18 W/m2
08:40 57.1 °F 53.9 °F 29.99 in NW 3 mph 4 mph 89% 0.00 in 19 W/m2
08:45 57.1 °F 53.9 °F 29.99 in NNW 3 mph 4 mph 89% 0.00 in 47 W/m2
08:50 57.1 °F 53.9 °F 29.99 in WNW 3 mph 3 mph 89% 0.00 in 83 W/m2
08:55 57.2 °F 54 °F 29.99 in NE 3 mph 3 mph 89% 0.00 in 304 W/m2
09:00 57.2 °F 54 °F 29.98 in ENE 2 mph 2 mph 89% 0.00 in 62 W/m2
09:05 57.4 °F 54.2 °F 29.99 in NE 2 mph 2 mph 89% 0.00 in 65 W/m2
09:10 57.5 °F 54.6 °F 29.98 in ENE 2 mph 2 mph 90% 0.00 in 56 W/m2
09:15 57.6 °F 54.4 °F 29.98 in NE 2 mph 4 mph 89% 0.00 in 54 W/m2
09:20 57.6 °F 54.1 °F 29.98 in ENE 3 mph 3 mph 88% 0.00 in 69 W/m2
09:25 57.7 °F 54.2 °F 29.98 in NNE 3 mph 3 mph 88% 0.00 in 65 W/m2
09:30 57.8 °F 54.3 °F 29.99 in ENE 3 mph 3 mph 88% 0.00 in 104 W/m2
09:35 58.1 °F 54.2 °F 29.99 in NE 3 mph 3 mph 87% 0.00 in 102 W/m2
09:40 58.3 °F 54.1 °F 29.99 in ESE 3 mph 3 mph 86% 0.00 in 76 W/m2
09:45 58.5 °F 54 °F 29.99 in ENE 3 mph 4 mph 85% 0.00 in 83 W/m2
09:50 58.6 °F 53.8 °F 29.99 in NE 3 mph 4 mph 84% 0.00 in 114 W/m2
09:55 58.7 °F 53.5 °F 30.00 in NE 3 mph 4 mph 83% 0.00 in 197 W/m2
10:00 59 °F 53.8 °F 30.00 in NE 2 mph 2 mph 83% 0.00 in 287 W/m2
10:05 59.2 °F 53.7 °F 30.00 in NE 3 mph 6 mph 82% 0.00 in 127 W/m2
10:10 59.5 °F 54.3 °F 30.00 in ENE 3 mph 3 mph 83% 0.00 in 155 W/m2
10:15 59.7 °F 54.2 °F 30.00 in ESE 2 mph 3 mph 82% 0.00 in 132 W/m2
10:20 59.9 °F 54.1 °F 30.01 in NNE 2 mph 3 mph 81% 0.00 in 58 W/m2
10:25 60 °F 53.8 °F 30.01 in East 2 mph 3 mph 80% 0.00 in 47 W/m2
10:30 60 °F 53.8 °F 30.01 in NNE 3 mph 3 mph 80% 0.00 in 51 W/m2
10:35 60 °F 53.8 °F 30.01 in ENE 3 mph 7 mph 80% 0.00 in 350 W/m2
10:40 60.1 °F 53.9 °F 30.01 in East 3 mph 8 mph 80% 0.00 in 473 W/m2
10:45 60.1 °F 53.6 °F 30.01 in NW 3 mph 8 mph 79% 0.00 in 411 W/m2
10:50 60.2 °F 53.7 °F 30.01 in NE 3 mph 3 mph 79% 0.00 in 490 W/m2
10:55 60.2 °F 53.7 °F 30.01 in North 2 mph 3 mph 79% 0.00 in 499 W/m2
11:00 60.3 °F 53.4 °F 30.01 in North 2 mph 2 mph 78% 0.00 in 512 W/m2
11:05 60.6 °F 53.3 °F 30.01 in NE 3 mph 3 mph 77% 0.00 in 520 W/m2
11:10 60.7 °F 53.4 °F 30.01 in East 3 mph 5 mph 77% 0.00 in 531 W/m2
11:15 60.6 °F 53 °F 30.02 in SE 3 mph 5 mph 76% 0.00 in 538 W/m2
11:20 60.5 °F 52.9 °F 30.01 in ESE 3 mph 3 mph 76% 0.00 in 548 W/m2
11:25 60.4 °F 52.8 °F 30.02 in SE 3 mph 3 mph 76% 0.00 in 555 W/m2
11:30 60.4 °F 53.2 °F 30.02 in East 2 mph 4 mph 77% 0.00 in 566 W/m2
11:35 60.6 °F 53.3 °F 30.02 in ENE 2 mph 6 mph 77% 0.00 in 573 W/m2
11:40 60.7 °F 53.1 °F 30.01 in ENE 3 mph 3 mph 76% 0.00 in 580 W/m2
11:45 60.9 °F 53.3 °F 30.01 in SSW 2 mph 3 mph 76% 0.00 in 589 W/m2
11:50 61.1 °F 53.1 °F 30.01 in ENE 2 mph 4 mph 75% 0.00 in 598 W/m2
11:55 61 °F 53 °F 30.01 in ESE 3 mph 4 mph 75% 0.00 in 462 W/m2
12:00 61.1 °F 53.5 °F 30.01 in NE 2 mph 5 mph 76% 0.00 in 276 W/m2
12:05 61.2 °F 53.2 °F 30.02 in NE 3 mph 5 mph 75% 0.00 in 700 W/m2
12:10 61.6 °F 53.2 °F 30.02 in SE 2 mph 2 mph 74% 0.00 in 679 W/m2
12:15 61.5 °F 53.1 °F 30.02 in WNW 2 mph 3 mph 74% 0.00 in 657 W/m2
12:20 61.7 °F 53 °F 30.02 in SE 2 mph 2 mph 73% 0.00 in 664 W/m2
12:25 61.6 °F 52.9 °F 30.02 in ENE 2 mph 2 mph 73% 0.00 in 643 W/m2
12:30 61.5 °F 52 °F 30.02 in East 2 mph 2 mph 71% 0.00 in 652 W/m2
12:35 61.5 °F 52 °F 30.02 in ENE 2 mph 4 mph 71% 0.00 in 671 W/m2
12:40 61.4 °F 52.3 °F 30.02 in ESE 3 mph 3 mph 72% 0.00 in 675 W/m2
12:45 61.3 °F 52.2 °F 30.01 in NE 3 mph 5 mph 72% 0.00 in 763 W/m2
12:50 61.3 °F 52.6 °F 30.02 in NNW 2 mph 3 mph 73% 0.00 in 824 W/m2
12:55 61.3 °F 52.2 °F 30.03 in ESE 2 mph 3 mph 72% 0.00 in 123 W/m2
13:00 60.7 °F 52 °F 30.03 in NE 3 mph 3 mph 73% 0.00 in 677 W/m2
13:05 61 °F 52.3 °F 30.02 in NE 2 mph 3 mph 73% 0.00 in 708 W/m2
13:10 61.2 °F 51.7 °F 30.03 in NE 2 mph 3 mph 71% 0.00 in 192 W/m2
13:15 61 °F 51.5 °F 30.02 in NNE 3 mph 3 mph 71% 0.00 in 666 W/m2
13:20 60.6 °F 51.5 °F 30.02 in East 3 mph 3 mph 72% 0.00 in 682 W/m2
13:25 60.8 °F 51.7 °F 30.02 in ENE 3 mph 3 mph 72% 0.00 in 715 W/m2
13:30 61 °F 52.3 °F 30.02 in East 3 mph 3 mph 73% 0.00 in 673 W/m2
13:35 61.5 °F 52.8 °F 30.03 in East 2 mph 3 mph 73% 0.00 in 675 W/m2
13:40 61.4 °F 51.9 °F 30.03 in East 2 mph 8 mph 71% 0.00 in 666 W/m2
13:45 60.9 °F 51.4 °F 30.03 in NNW 3 mph 8 mph 71% 0.00 in 668 W/m2
13:50 60.6 °F 51.5 °F 30.03 in ENE 3 mph 3 mph 72% 0.00 in 686 W/m2
13:55 60.5 °F 51.4 °F 30.03 in NNW 2 mph 5 mph 72% 0.00 in 679 W/m2
14:00 60.6 °F 51.5 °F 30.03 in ENE 2 mph 2 mph 72% 0.00 in 661 W/m2
14:05 61 °F 51.9 °F 30.03 in East 2 mph 2 mph 72% 0.00 in 654 W/m2
14:10 60.9 °F 51.8 °F 30.03 in NE 2 mph 2 mph 72% 0.00 in 654 W/m2
14:15 60.9 °F 51.4 °F 30.03 in NE 2 mph 2 mph 71% 0.00 in 650 W/m2
14:20 61 °F 51.5 °F 30.03 in ESE 3 mph 3 mph 71% 0.00 in 645 W/m2
14:25 61.1 °F 52 °F 30.02 in NNW 2 mph 3 mph 72% 0.00 in 642 W/m2
14:30 61.1 °F 51.6 °F 30.02 in East 2 mph 2 mph 71% 0.00 in 636 W/m2
14:35 61.1 °F 51.6 °F 30.02 in NW 3 mph 3 mph 71% 0.00 in 631 W/m2
14:40 61.2 °F 51.7 °F 30.02 in ENE 3 mph 3 mph 71% 0.00 in 626 W/m2
14:45 61.2 °F 51.3 °F 30.02 in ENE 3 mph 3 mph 70% 0.00 in 621 W/m2
14:50 61.1 °F 51.2 °F 30.02 in SSE 2 mph 2 mph 70% 0.00 in 615 W/m2
14:55 61.1 °F 51.2 °F 30.02 in North 2 mph 2 mph 70% 0.00 in 610 W/m2
15:00 61.1 °F 51.2 °F 30.02 in East 2 mph 3 mph 70% 0.00 in 603 W/m2
15:05 61.1 °F 51.2 °F 30.02 in ENE 2 mph 3 mph 70% 0.00 in 596 W/m2
15:10 60.8 °F 51.3 °F 30.02 in NE 2 mph 2 mph 71% 0.00 in 587 W/m2
15:15 60.4 °F 50.6 °F 30.02 in ENE 2 mph 2 mph 70% 0.00 in 582 W/m2
15:20 60.4 °F 51.3 °F 30.02 in ENE 2 mph 4 mph 72% 0.00 in 573 W/m2
15:25 60.6 °F 50.8 °F 30.02 in NE 2 mph 4 mph 70% 0.00 in 568 W/m2
15:30 60.7 °F 50.9 °F 30.02 in East 2 mph 3 mph 70% 0.00 in 559 W/m2
15:35 60.8 °F 51 °F 30.01 in North 2 mph 3 mph 70% 0.00 in 550 W/m2
15:40 60.9 °F 51 °F 30.01 in North 2 mph 2 mph 70% 0.00 in 561 W/m2
15:45 60.9 °F 50.7 °F 30.01 in North 2 mph 2 mph 69% 0.00 in 538 W/m2
15:50 60.9 °F 51 °F 30.01 in SE 2 mph 2 mph 70% 0.00 in 522 W/m2
15:55 61 °F 50.8 °F 30.01 in ENE 2 mph 2 mph 69% 0.00 in 515 W/m2
16:00 61 °F 50.8 °F 30.01 in North 2 mph 2 mph 69% 0.00 in 497 W/m2
16:05 61 °F 50.8 °F 30.01 in NNE 2 mph 2 mph 69% 0.00 in 487 W/m2
16:10 61 °F 50.8 °F 30.01 in East 2 mph 2 mph 69% 0.00 in 478 W/m2
16:15 61 °F 51.1 °F 30.01 in ENE 2 mph 4 mph 70% 0.00 in 466 W/m2
16:20 61 °F 50.8 °F 30.01 in ENE 2 mph 2 mph 69% 0.00 in 455 W/m2
16:25 60.9 °F 50.3 °F 30.01 in ENE 2 mph 2 mph 68% 0.00 in 446 W/m2
16:30 60.8 °F 50.2 °F 30.01 in SSE 2 mph 2 mph 68% 0.00 in 436 W/m2
16:35 60.8 °F 50.6 °F 30.00 in ENE 2 mph 4 mph 69% 0.00 in 424 W/m2
16:40 60.8 °F 50.6 °F 30.00 in NE 2 mph 2 mph 69% 0.00 in 411 W/m2
16:45 60.9 °F 51 °F 30.00 in ESE 2 mph 3 mph 70% 0.00 in 399 W/m2
16:50 60.9 °F 50.7 °F 30.00 in NE 3 mph 4 mph 69% 0.00 in 390 W/m2
16:55 60.9 °F 50.3 °F 30.00 in ENE 2 mph 4 mph 68% 0.00 in 374 W/m2
17:00 60.9 °F 50.7 °F 29.99 in ENE 3 mph 3 mph 69% 0.00 in 360 W/m2
17:05 60.9 °F 50.3 °F 29.99 in East 2 mph 3 mph 68% 0.00 in 345 W/m2
17:10 60.9 °F 50.7 °F 29.99 in NNE 2 mph 2 mph 69% 0.00 in 336 W/m2
17:15 60.9 °F 50.7 °F 29.99 in NE 2 mph 2 mph 69% 0.00 in 318 W/m2
17:20 60.9 °F 50.3 °F 29.99 in NE 2 mph 2 mph 68% 0.00 in 308 W/m2
17:25 60.8 °F 50.2 °F 29.99 in NE 2 mph 3 mph 68% 0.00 in 294 W/m2
17:30 60.7 °F 50.5 °F 30.00 in ENE 2 mph 2 mph 69% 0.00 in 281 W/m2
17:35 60.7 °F 50.9 °F 30.00 in North 2 mph 2 mph 70% 0.00 in 269 W/m2
17:40 60.5 °F 50.7 °F 30.00 in ESE 2 mph 2 mph 70% 0.00 in 255 W/m2
17:45 60.4 °F 50.6 °F 29.99 in NE 2 mph 2 mph 70% 0.00 in 239 W/m2
17:50 60.3 °F 50.9 °F 30.00 in NE 2 mph 2 mph 71% 0.00 in 227 W/m2
17:55 60.2 °F 50.8 °F 30.00 in NNE 2 mph 2 mph 71% 0.00 in 213 W/m2
18:00 60.2 °F 50.8 °F 30.00 in North 1 mph 1 mph 71% 0.00 in 199 W/m2
18:05 60 °F 50.6 °F 30.00 in NNW 2 mph 2 mph 71% 0.00 in 183 W/m2
18:10 59.9 °F 50.5 °F 30.00 in ESE 2 mph 2 mph 71% 0.00 in 130 W/m2
18:15 59.9 °F 50.1 °F 30.00 in ENE 2 mph 2 mph 70% 0.00 in 83 W/m2
18:20 59.7 °F 50.3 °F 30.00 in ENE 2 mph 3 mph 71% 0.00 in 37 W/m2
18:25 59.6 °F 50.2 °F 30.00 in East 2 mph 3 mph 71% 0.00 in 30 W/m2
18:30 59.5 °F 49.7 °F 29.99 in SE 2 mph 3 mph 70% 0.00 in 32 W/m2
18:35 59.4 °F 49.6 °F 29.99 in ESE 2 mph 3 mph 70% 0.00 in 26 W/m2
18:40 59.3 °F 49.5 °F 29.99 in ESE 2 mph 2 mph 70% 0.00 in 23 W/m2
18:45 59.3 °F 49.9 °F 29.99 in ESE 2 mph 2 mph 71% 0.00 in 26 W/m2
18:50 59.1 °F 49.7 °F 29.99 in North 1 mph 1 mph 71% 0.00 in 19 W/m2
18:55 59.1 °F 49.7 °F 29.99 in NE 1 mph 1 mph 71% 0.00 in 12 W/m2
19:00 58.9 °F 49.9 °F 29.99 in NE 1 mph 1 mph 72% 0.00 in 14 W/m2
19:05 58.8 °F 49.8 °F 29.99 in East 1 mph 1 mph 72% 0.00 in 11 W/m2
19:10 58.6 °F 50 °F 29.99 in NE 1 mph 1 mph 73% 0.00 in 9 W/m2
19:15 58.4 °F 49.8 °F 29.99 in ENE 1 mph 2 mph 73% 0.00 in 7 W/m2
19:20 58.3 °F 49.7 °F 29.99 in ENE 2 mph 2 mph 73% 0.00 in 5 W/m2
19:25 58.1 °F 49.5 °F 29.99 in ESE 2 mph 2 mph 73% 0.00 in 0 W/m2
19:30 58 °F 49.4 °F 29.99 in ESE 1 mph 2 mph 73% 0.00 in 0 W/m2
19:35 57.8 °F 49.6 °F 30.00 in ENE 1 mph 2 mph 74% 0.00 in 0 W/m2
19:40 57.7 °F 49.5 °F 30.00 in ENE 1 mph 1 mph 74% 0.00 in 0 W/m2
19:45 57.5 °F 49.3 °F 30.00 in NE 1 mph 1 mph 74% 0.00 in 0 W/m2
19:50 57.4 °F 49.2 °F 30.00 in NE 1 mph 1 mph 74% 0.00 in 0 W/m2
19:55 57.2 °F 49 °F 30.00 in NE 1 mph 1 mph 74% 0.00 in 0 W/m2
20:00 57 °F 48.8 °F 30.00 in ENE 1 mph 1 mph 74% 0.00 in 0 W/m2
20:05 56.8 °F 48.6 °F 30.00 in East 1 mph 2 mph 74% 0.00 in 0 W/m2
20:10 56.7 °F 48.9 °F 30.00 in NE 1 mph 1 mph 75% 0.00 in 0 W/m2
20:15 56.5 °F 48.7 °F 30.00 in NE 1 mph 1 mph 75% 0.00 in 0 W/m2
20:20 56.3 °F 48.5 °F 30.00 in NE 1 mph 1 mph 75% 0.00 in 0 W/m2
20:25 56.2 °F 48.4 °F 30.00 in East 1 mph 1 mph 75% 0.00 in 0 W/m2
20:30 56 °F 48.2 °F 30.00 in ESE 1 mph 2 mph 75% 0.00 in 0 W/m2
20:35 55.9 °F 48.1 °F 30.00 in NE 1 mph 2 mph 75% 0.00 in 0 W/m2
20:40 55.7 °F 47.9 °F 30.01 in East 1 mph 1 mph 75% 0.00 in 0 W/m2
20:45 55.6 °F 47.8 °F 30.01 in NE 1 mph 1 mph 75% 0.00 in 0 W/m2
20:50 55.5 °F 47.7 °F 30.01 in ENE 1 mph 1 mph 75% 0.00 in 0 W/m2
20:55 55.3 °F 47.5 °F 30.01 in ENE 1 mph 1 mph 75% 0.00 in 0 W/m2
21:00 55.2 °F 47.8 °F 30.01 in East 1 mph 1 mph 76% 0.00 in 0 W/m2
21:05 55 °F 47.6 °F 30.01 in NE 1 mph 1 mph 76% 0.00 in 0 W/m2
21:10 54.8 °F 47.4 °F 30.01 in ENE 1 mph 1 mph 76% 0.00 in 0 W/m2
21:15 54.7 °F 47.3 °F 30.01 in ENE 1 mph 1 mph 76% 0.00 in 0 W/m2
21:20 54.5 °F 47.1 °F 30.01 in ENE 1 mph 2 mph 76% 0.00 in 0 W/m2
21:25 54.4 °F 47.3 °F 30.01 in NE 1 mph 2 mph 77% 0.00 in 0 W/m2
21:30 54.2 °F 47.1 °F 30.02 in NE 1 mph 2 mph 77% 0.00 in 0 W/m2
21:35 54.1 °F 47 °F 30.02 in ENE 1 mph 2 mph 77% 0.00 in 0 W/m2
21:40 54 °F 47 °F 30.02 in NE 1 mph 1 mph 77% 0.00 in 0 W/m2
21:45 53.9 °F 46.9 °F 30.02 in ENE 1 mph 1 mph 77% 0.00 in 0 W/m2
21:50 53.8 °F 47.1 °F 30.02 in East 1 mph 1 mph 78% 0.00 in 0 W/m2
21:55 53.7 °F 47 °F 30.02 in East 1 mph 1 mph 78% 0.00 in 0 W/m2
22:00 53.6 °F 46.9 °F 30.03 in NE 1 mph 1 mph 78% 0.00 in 0 W/m2
22:05 53.5 °F 46.8 °F 30.03 in East 1 mph 1 mph 78% 0.00 in 0 W/m2
22:10 53.4 °F 46.7 °F 30.03 in East 1 mph 1 mph 78% 0.00 in 0 W/m2
22:15 53.4 °F 46.7 °F 30.03 in East 1 mph 1 mph 78% 0.00 in 0 W/m2
22:20 53.3 °F 46.6 °F 30.03 in ENE 1 mph 1 mph 78% 0.00 in 0 W/m2
22:25 53.2 °F 46.9 °F 30.03 in ENE 1 mph 1 mph 79% 0.00 in 0 W/m2
22:30 53.2 °F 46.9 °F 30.03 in Calm     79% 0.00 in 0 W/m2
22:35 53.2 °F 46.9 °F 30.03 in Calm     79% 0.00 in 0 W/m2
22:40 53.2 °F 47.2 °F 30.03 in Calm     80% 0.00 in 0 W/m2
22:45 53.2 °F 47.2 °F 30.03 in Calm     80% 0.00 in 0 W/m2
22:50 53.6 °F 47.9 °F 30.03 in Calm     81% 0.00 in 0 W/m2
22:55 54.2 °F 48.5 °F 30.03 in Calm   1 mph 81% 0.00 in 0 W/m2
23:00 54.8 °F 48.7 °F 30.03 in Calm     80% 0.00 in 0 W/m2
23:05 55.1 °F 48.4 °F 30.02 in Calm     78% 0.00 in 0 W/m2
23:10 55.5 °F 48.8 °F 30.02 in Calm     78% 0.00 in 0 W/m2
23:15 55.7 °F 48.9 °F 30.02 in Calm     78% 0.00 in 0 W/m2
23:20 55.9 °F 48.8 °F 30.02 in Calm   1 mph 77% 0.00 in 0 W/m2
23:25 56 °F 49.2 °F 30.02 in ESE 1 mph 1 mph 78% 0.00 in 0 W/m2
23:30 56.1 °F 48.3 °F 30.02 in NE 1 mph 1 mph 75% 0.00 in 0 W/m2
23:35 56.2 °F 48.4 °F 30.02 in Calm   1 mph 75% 0.00 in 0 W/m2
23:40 56.2 °F 48.4 °F 30.03 in Calm     75% 0.00 in 0 W/m2
23:45 56.3 °F 48.8 °F 30.03 in NNW 1 mph 1 mph 76% 0.00 in 0 W/m2
23:50 56.3 °F 49.2 °F 30.03 in Calm   2 mph 77% 0.00 in 0 W/m2
23:55 56.3 °F 49.2 °F 30.03 in ESE 1 mph 2 mph 77% 0.00 in 0 W/m2
Sand Point, Michigan, USA
Compliments of Weather Underground - 2 mb